Regional Weather Roundup
Issued by NWS

Home | Current Version | Previous Version | Text Only | Print | Product List | Glossary Off
Versions: 1 2 3 4 5 6 7 8 9 10 11 12 13 14 15 16 17 18 19 20 21 22 23 24 25 26 27 28 29 30 31 32 33 34 35 36 37 38 39 40 41 42 43 44 45 46 47 48 49 50

490
ASUS43 KFSD 270102
RWRSD

WEATHER ROUNDUP FOR SOUTH DAKOTA
NATIONAL WEATHER SERVICE SIOUX FALLS SD
800 PM CDT THU MAY 26 2016

NOTE: "FAIR" INDICATES FEW OR NO CLOUDS BELOW 12,000 FEET WITH NO
SIGNIFICANT WEATHER AND/OR OBSTRUCTIONS TO VISIBILITY.


SDZ001>005-009-010-012>017-270200-
NORTHWEST AND NORTH CENTRAL SOUTH DAKOTA

CITY           SKY/WX    TMP DP  RH WIND       PRES   REMARKS
BUFFALO          N/A     63  43  48 N10       29.78R
FAITH            N/A     68  40  35 NW13      29.79R
MOBRIDGE       MOSUNNY   75  45  34 W7        29.74R
$$

SDZ012>016-024>037-041>051-057-063-072>074-270200-
SOUTHWEST AND SOUTH CENTRAL SOUTH DAKOTA

CITY           SKY/WX    TMP DP  RH WIND       PRES   REMARKS
RAPID CTY ARPT MOSUNNY   66  45  46 N6        29.82S
PIERRE         SUNNY     72  53  51 NW8       29.77R
CUSTER         CLOUDY    58  42  55 E6        29.91R
ELLSWORTH AFB  CLOUDY    66  44  45 CALM      29.82S
PHILIP         MOSUNNY   68  51  54 N5        29.79R
PINE RIDGE     PTSUNNY   67  43  41 W9        29.82S
WINNER         FAIR      71  56  58 SE13      29.76F
$$

SDZ004>011-016>023-039-040-270200-
NORTHEAST SOUTH DAKOTA

CITY           SKY/WX    TMP DP  RH WIND       PRES   REMARKS
ABERDEEN       CLOUDY    75  51  43 S5        29.77R
WATERTOWN      CLOUDY    72  52  49 S8        29.84R
BROOKINGS      CLOUDY    71  53  52 S10       29.83R
SISSETON         N/A     75  49  39 SW8       29.80R
$$

SDZ017-020-022-023-036>040-048>070-270200-
SOUTHEAST SOUTH DAKOTA

CITY           SKY/WX    TMP DP  RH WIND       PRES   REMARKS
SIOUX FALLS    CLOUDY    70  56  61 E7        29.82F
HURON          CLOUDY    73  56  54 MISG      29.79R
MITCHELL       CLOUDY    72  58  61 SE6       29.80F
YANKTON        CLOUDY    72  59  64 NE7       29.77F
$$

ABBREVIATIONS USED IN REMARKS
   TC - TEMPERATURE IN CELSIUS
  WCI - WIND CHILL INDEX
   HX - HEAT INDEX
  VSB - VISIBILITY





USA.gov is the U.S. government's official web portal to all federal, state and local government web resources and services.